Weather History for Blackpool, United Kingdom

Change the Weather History Date:

Sunday, February 2, 2014

  Actual Average Record
Temperature  
Mean Temperature 44 °F -  
Max Temperature 47 °F 44 °F 51 °F (2002)
Min Temperature 42 °F 36 °F 24 °F (2012)
Degree Days  
Heating Degree Days 20    
Moisture  
Dew Point 40 °F    
Average Humidity 80    
Maximum Humidity 89    
Minimum Humidity 67    
Precipitation  
Precipitation 0.01 in - - ()
Sea Level Pressure  
Sea Level Pressure 29.53 in    
Wind  
Wind Speed 20 mph ()    
Max Wind Speed 31 mph    
Max Gust Speed -    
Visibility 6.1 miles    
Events Rain    
Averages and records for this station are not official NWS values.
T = Trace of Precipitation, MM = Missing Value Source: Averaged Metar Reports

Daily Weather History Graph

Daily Weather History Graph

Search for Another Location

Airport:

Trip Planner

Search our weather history database for the weather conditions in past years. The results will help you decide how hot, cold, wet, or windy it might be!

Date:

Astronomy

Feb. 02, 2014 Rise Set
Actual Time 7:56 AM GMT 4:55 PM GMT
Civil Twilight 7:18 AM GMT 5:34 PM GMT
Nautical Twilight 6:36 AM GMT 6:16 PM GMT
Astronomical Twilight 5:55 AM GMT 6:57 PM GMT
Moon 8:41 AM GMT (2/2) 9:01 PM GMT (2/2)
Length of Visible Light 10h 15m
Length of Day
8h 58m
Waxing Crescent, 10% of the Moon is Illuminated
Feb 2
Waxing Crescent
Feb 6
First Quarter
Feb 14
Full
Feb 22
Last Quarter
Mar 1
New

Hourly Weather History & Observations

Time (GMT) Temp. Windchill Dew Point Humidity Pressure Visibility Wind Dir Wind Speed Gust Speed Precip Events Conditions
12:00 AM 45 °F - 40 °F 77%  in - WSW 29.9 mph - -  
1:00 AM 44 °F - 41 °F 83%  in - WSW 31.1 mph - -  
2:00 AM 44 °F - 42 °F 89%  in - WSW 26.5 mph - -  
3:00 AM 44 °F - 42 °F 89%  in - WSW 29.9 mph - -  
4:00 AM 44 °F - 42 °F 89%  in - WSW 29.9 mph - -  
5:00 AM 44 °F - 42 °F 89%  in - WSW 28.8 mph - -  
6:00 AM 44 °F - 41 °F 86%  in - WSW 24.2 mph - -  
6:20 AM 44.6 °F 35.9 °F 41.0 °F 87% 29.36 in 5.6 mi SW 23.0 mph - N/A Rain Light Rain
6:50 AM 44.6 °F 36.9 °F 41.0 °F 87% 29.36 in 6.2 mi SW 18.4 mph - N/A   Scattered Clouds
7:00 AM 44 °F - 40 °F 83%  in - WSW 20.7 mph - -  
7:20 AM 44.6 °F 36.4 °F 41.0 °F 87% 29.39 in 6.2 mi SW 20.7 mph - N/A   Scattered Clouds
7:50 AM 44.6 °F 36.9 °F 41.0 °F 87% 29.42 in 5.6 mi SSW 18.4 mph - N/A   Scattered Clouds
8:00 AM 44 °F - 40 °F 79%  in - SW 19.6 mph - -  
8:20 AM 44.6 °F 37.2 °F 41.0 °F 87% 29.44 in 5.6 mi SSW 17.3 mph - N/A   Scattered Clouds
8:50 AM 42.8 °F 34.0 °F 39.2 °F 87% 29.44 in 5.6 mi SW 20.7 mph - N/A   Partly Cloudy
9:00 AM 43 °F - 37 °F 74%  in - SW 24.2 mph - -  
9:20 AM 44.6 °F 35.9 °F 39.2 °F 81% 29.47 in 5.6 mi SW 23.0 mph - N/A   Partly Cloudy
9:50 AM 44.6 °F 36.4 °F 39.2 °F 81% 29.47 in 5.6 mi SW 20.7 mph - N/A   Partly Cloudy
10:00 AM 44 °F - 38 °F 72%  in - WSW 24.2 mph - -  
10:20 AM 44.6 °F 35.7 °F 39.2 °F 81% 29.50 in 6.2 mi SW 24.2 mph - N/A   Partly Cloudy
10:50 AM 44.6 °F 36.4 °F 39.2 °F 81% 29.50 in 6.2 mi SW 20.7 mph - N/A   Partly Cloudy
11:00 AM 45 °F - 38 °F 69%  in - SW 23.0 mph - -  
11:20 AM 44.6 °F 36.4 °F 39.2 °F 81% 29.53 in 6.2 mi SW 20.7 mph - N/A   Scattered Clouds
11:50 AM 46.4 °F 38.5 °F 39.2 °F 76% 29.53 in 6.2 mi SW 21.9 mph - N/A   Scattered Clouds
12:00 PM 45 °F - 38 °F 70%  in - SW 24.2 mph - -  
12:50 PM 46.4 °F 39.0 °F 39.2 °F 76% 29.56 in 6.2 mi SW 19.6 mph - N/A   Partly Cloudy
1:00 PM 46 °F - 39 °F 67%  in - SW 20.7 mph - -  
1:20 PM 46.4 °F 39.2 °F 39.2 °F 76% 29.56 in 6.2 mi SW 18.4 mph - N/A   Partly Cloudy
1:50 PM 46.4 °F 39.0 °F 39.2 °F 76% 29.56 in 6.2 mi SW 19.6 mph - N/A   Partly Cloudy
2:00 PM 46 °F - 39 °F 69%  in - SW 20.7 mph - -  
2:20 PM 48.2 °F - 41.0 °F 76% 29.59 in 6.2 mi SSW 16.1 mph - N/A   Partly Cloudy
2:50 PM 46.4 °F 40.1 °F 41.0 °F 81% 29.59 in 6.2 mi SSW 15.0 mph - N/A   Partly Cloudy
3:00 PM 46 °F - 40 °F 71%  in - SW 15.0 mph - -  
3:20 PM 46.4 °F 40.7 °F 39.2 °F 76% 29.59 in 6.2 mi South 12.7 mph - N/A   Partly Cloudy
3:50 PM 46.4 °F 40.7 °F 39.2 °F 76% 29.59 in 6.2 mi South 12.7 mph - N/A   Partly Cloudy
4:00 PM 45 °F - 39 °F 72%  in - South 12.7 mph - -  
4:20 PM 46.4 °F 40.1 °F 41.0 °F 81% 29.59 in 6.2 mi South 15.0 mph - N/A   Partly Cloudy
4:50 PM 44.6 °F 37.8 °F 41.0 °F 87% 29.59 in 6.2 mi South 15.0 mph - N/A   Partly Cloudy
5:00 PM 45 °F - 40 °F 75%  in - South 15.0 mph - -  
5:20 PM 44.6 °F 37.4 °F 41.0 °F 87% 29.62 in 6.2 mi SSE 16.1 mph - N/A   Mostly Cloudy
5:50 PM 44.6 °F 37.8 °F 41.0 °F 87% 29.62 in 6.2 mi SSE 15.0 mph - N/A Rain Rain
6:00 PM 45 °F - 40 °F 75%  in - South 13.8 mph - -  
6:50 PM 44.6 °F 37.2 °F 39.2 °F 81% 29.65 in 6.2 mi SSE 17.3 mph - N/A   Mostly Cloudy
7:00 PM 44 °F - 39 °F 77%  in - South 13.8 mph - -  
8:00 PM 44 °F - 40 °F 79%  in - SSE 13.8 mph - -  
8:20 PM 42.8 °F 36.2 °F 39.2 °F 87% 29.65 in 6.2 mi SE 12.7 mph - N/A   Mostly Cloudy
8:50 PM 42.8 °F 36.2 °F 39.2 °F 87% 29.65 in 6.2 mi SE 12.7 mph - N/A   Mostly Cloudy
9:00 PM 43 °F - 39 °F 80%  in - SSE 13.8 mph - -  
10:00 PM 42 °F - 39 °F 85%  in - SSE 13.8 mph - -  
11:00 PM 42 °F - 39 °F 84%  in - SE 17.3 mph - -